Find Starlink 32100

NORAD ID: 59686 Int'l Des: 2024-086 Owner: SPXS Country: US Constellation: starlink operational
LEOCIRCULAR

Live-Position

3D-Globus wird geladen...

Über Starlink 32100

Beschreibung wird geladen...

Nächste Überflüge

Passes for default location (London). Set your location on the main map for personalized predictions.

Höhenverlauf

Loading altitude history...

Zweizeiliger Elementsatz

1 59686U 24086E 26125.34703627 .00000980 00000-0 45131-4 0 9997
2 59686 43.0036 81.8191 0001336 269.2041 90.8658 15.27580942112987
Epoch: 5. Mai 2026 • Age: 13 hours

Aktueller Status

Höhe 484.7 km
Geschwindigkeit 7.63 km/s
Subsatellitenpunkt 32.16°N, 31.2°E
Startdatum 8. Mai 2024
Alter 1.9 years
Typ internet

Technische Details

Klassifizierung Payload
Masse 730.00 kg
Trockenmasse 700.00 kg
Gesamtmasse 730.00 kg
Länge 0.30 m
Durchmesser 4.10 m
Spannweite 29.00 m
Form Box + pan
Hersteller SPXS
Bus-Typ Starlink V2M
Phasenstatus In Orbit
Besitzer/Staat SPXS/US

Most Searched